Weather Service Report


101 
ASUS44 KSJT 281810
RWRSJT
WEST CENTRAL TEXAS REGIONAL WEATHER ROUNDUP
NATIONAL WEATHER SERVICE SAN ANGELO TX
100 PM CDT THU AUG 28 2014

NOTE: "FAIR" INDICATES FEW OR NO CLOUDS BELOW 12,000 FEET WITH NO
SIGNIFICANT WEATHER AND/OR OBSTRUCTIONS TO VISIBILITY.

TXZ049-054-064>066-071>073-076>078-098-099-113-114-127-128-139-140-
154-155-168>170-281900
...LOCATIONS ACROSS WEST CENTRAL TEXAS...
  
CITY           SKY/WX    TMP DP  RH WIND       PRES   REMARKS
SAN ANGELO     SUNNY     93  62  35 VRB7      29.97F                  
ABILENE        SUNNY     93  62  35 S13       29.97F                  
DYESS AFB      MOSUNNY   93  64  37 SE9       29.95F                  
JUNCTION       MOSUNNY   90  63  40 VRB3      29.97F                  
SWEETWATER     MOSUNNY   93  58  30 SE9G18    30.02F                  
BROWNWOOD      MOSUNNY   91  59  33 E9        29.96F                  
COLEMAN        CLEAR     91  59  33 S9        29.98F                  
SONORA         SUNNY     88  64  45 SW8       30.04F                  
OZONA          FAIR      91  59  33 SW10      30.02F                  
BRADY          MOSUNNY   91  61  35 VRB5      29.97F                  
$$

TEXAS PANHANDLE/OKLAHOMA PANHANDLE
  
CITY           SKY/WX    TMP DP  RH WIND       PRES   REMARKS
AMARILLO       SUNNY     87  46  24 NW8       30.03F                  
BORGER         SUNNY     86  52  30 VRB5      29.99F                  
CANADIAN       MOSUNNY   87  68  54 W8        29.94F                  
DALHART        SUNNY     81  54  39 E5        30.07F                  
DUMAS          CLEAR     81  60  48 N5        30.04F                  
GUYMON         NOT AVBL                                               
HEREFORD       CLEAR     88  53  29 NW8       30.04F                  
PAMPA          CLEAR     83  57  40 NW8       30.01F                  
PERRYTON       SUNNY     80  64  58 NW9       29.98F                  
$$

SOUTHERN PANHANDLE/SOUTH PLAINS/ROLLING PLAINS
  
CITY           SKY/WX    TMP DP  RH WIND       PRES   REMARKS
LUBBOCK        MOSUNNY   93  59  31 VRB6      30.00F                  
SNYDER         PTSUNNY   88  64  43 S13       29.99F                  
CHILDRESS      PTSUNNY   79  67  66 SE13      29.97F                  
SEMINOLE       CLEAR     92  56  29 W8        30.02F                  
$$

PERMIAN BASIN
  
CITY           SKY/WX    TMP DP  RH WIND       PRES   REMARKS
MIDLAND        SUNNY     92  60  34 S10       29.99F                  
ODESSA         SUNNY     92  58  31 SW12      30.00F                  
WINK           SUNNY     96  59  29 W13       29.97F                  
$$

FAR WEST/SOUTHWEST MOUNTAINS/TRANS PECOS
  
CITY           SKY/WX    TMP DP  RH WIND       PRES   REMARKS
ALPINE         CLEAR     86  54  33 W10       30.17F                  
DRYDEN           N/A     95  61  32 VRB3      29.96F                  
EL PASO        MOSUNNY   84  57  39 CALM      30.10F                  
FORT STOCKTON  SUNNY     92  56  29 VRB3      30.01F                  
GUADALUPE PASS SUNNY     84  55  36 W16G24    30.20F                  
MARFA          SUNNY     82  57  42 CALM      30.18F                  
PECOS          CLEAR     94  59  30 NW9       29.97F                  
$$

DALLAS/FORT WORTH METROPLEX
  
CITY           SKY/WX    TMP DP  RH WIND       PRES   REMARKS
DFW AIRPORT    MOSUNNY   92  67  43 SE9G17    29.95F                  
FTW MEACHAM    PTSUNNY   92  64  39 S8        29.94F                  
DAL-EXECUTIVE  MOSUNNY   92  66  42 SE8       29.95F                  
GRAND PRAIRIE  SUNNY     91  64  40 SE7       29.97F                  
ADDISON        SUNNY     90  64  43 SE9       29.96F                  
MESQUITE       PTCLDY    91  64  40 SE9       29.96F                  
LANCASTER      MOCLDY    90  65  43 SE6       29.96F                  
$$

NORTH CENTRAL TEXAS
  
CITY           SKY/WX    TMP DP  RH WIND       PRES   REMARKS
SHRMAN/DENISON MOCLDY    91  62  38 S12G17    29.97F                  
GAINESVILLE    SUNNY     86  67  52 SE10      29.98F                  
BRIDGEPORT     PTCLDY    92  59  32 S10       29.97F                  
DENTON         MOSUNNY   92  64  39 SE12      29.95F                  
WAXAHACHIE     PTCLDY    91  62  36 SE8       29.96F                  
GRANBURY       PTCLDY    93  61  33 SE13      29.96F                  
$$

WESTERN NORTH TEXAS
  
CITY           SKY/WX    TMP DP  RH WIND       PRES   REMARKS
WICHITA FALLS  MOSUNNY   95  61  32 S13G21    29.92F                  
VERNON         MOCLDY    94  56  27 SW10      29.93F                  
BRECKENRIDGE   PTCLDY    96  58  28 S6G17     29.94F                  
COMANCHE         N/A     91  59  34 S5        29.97F                  
$$

CENTRAL AND SOUTH CENTRAL TEXAS
  
CITY           SKY/WX    TMP DP  RH WIND       PRES   REMARKS
AUSTIN/BERGSTM PTSUNNY   94  70  45 E8        29.91F                  
WACO           MOSUNNY   91  66  43 S12       29.94F                  
HILLSBORO      CLEAR     93  62  36 SE9G18    29.95F                  
TEMPLE         MOSUNNY   90  66  45 E3        29.95F                  
KILLEEN-GRAY   MOSUNNY   90  66  45 NE7       29.95F                  
FORT HOOD      SUNNY     94  64  37 SE8       29.95F                  
GEORGETOWN     MOSUNNY   90  70  51 NE6       29.96F                  
LAGO VISTA     MOCLDY    92  64  38 E8        29.97F                  
SAN MARCOS     PTSUNNY   90  70  51 NE8       29.94F                  
NEW BRAUNFELS  PTSUNNY   92  69  47 VRB6      29.91F                  
RANDOLPH AFB   PTSUNNY   92  69  46 NE8       29.92F                  
SAN ANTONIO    MOSUNNY   91  69  48 VRB7      29.93F                  
STINSON        MOSUNNY   93  69  45 E6        29.90F                  
PLEASANTON     NOT AVBL                                               
LA GRANGE      PTSUNNY   91  74  56 SE8       29.90F                  
GIDDINGS       MOCLDY    89  70  52 E7        29.96F                  
$$

EAST TEXAS
  
CITY           SKY/WX    TMP DP  RH WIND       PRES   REMARKS
PARIS          PTSUNNY   90  66  45 SE8       29.98F                  
CLARKSVILLE    CLEAR     91  68  46 SE8       29.98F                  
TYLER          MOSUNNY   90  69  50 S9        29.97F                  
LONGVIEW       MOSUNNY   91  70  49 SE10      29.96F                  
PALESTINE      PTCLDY    89  70  51 E8        29.97F                  
NACOGDOCHES    MOSUNNY   90  70  51 SE10      29.97F                  
$$

TEXAS HILL COUNTRY AND EDWARDS PLATEAU
  
CITY           SKY/WX    TMP DP  RH WIND       PRES   REMARKS
LLANO          CLEAR     93  64  38 CALM      29.98F                  
HORSESHOE BAY  FAIR      91  64  40 E6        29.96F                  
KERRVILLE      SUNNY     89  66  46 E5        29.98F                  
FREDERICKSBRG  MOSUNNY   88  62  40 E3        29.97F                  
ROCKSPRINGS    CLEAR     88  64  45 SE3       30.03F                  
HONDO            N/A    N/A N/A N/A MISG      29.94F                  
UVALDE         CLEAR     92  70  48 SE5       29.93F                  
DEL RIO        SUNNY     92  66  42 SE7       29.91F                  
$$

SOUTHEAST TEXAS
  
CITY           SKY/WX    TMP DP  RH WIND       PRES   REMARKS
COLLEGE STN    PTSUNNY   90  72  55 S7        29.93F                  
CALDWELL       PTCLDY    88  72  58 SE5       29.96F                  
CROCKETT       CLEAR     93  73  52 E7        29.98F                  
BRENHAM        MOSUNNY   88  73  61 E18G24    29.94F                  
HUNTSVILLE     MOSUNNY   89  70  53 S8        29.95F                  
CONROE         MOSUNNY   88  72  58 E8G17     29.95F                  
HOUSTON BUSH   PTSUNNY   88  72  58 S13       29.95S                  
HOUSTON HOBBY  CLOUDY    83  73  72 E10       29.94F                  
PERLAND        CLOUDY    82  74  76 E12       29.96F                  
WHARTON        PTCLDY    85  73  69 SE7       29.93F                  
$$

THE UPPER TEXAS COAST
  
CITY           SKY/WX    TMP DP  RH WIND       PRES   REMARKS
ORANGE         MOCLDY    84  74  72 E10       29.98F                  
PORT ARTHUR    CLOUDY    87  74  64 E12       29.95F                  
GALVESTON      LGT RAIN  77  75  93 E6        29.96F                  
ANGLETON       CLOUDY    77  74  90 E12G17    29.96R                  
BAY CITY       MOCLDY    85  75  73 E6        29.93S                  
$$

TEXAS COASTAL BEND, RIO GRANDE PLAINS DEEP SOUTH TEXAS
  
CITY           SKY/WX    TMP DP  RH WIND       PRES   REMARKS
VICTORIA       PTSUNNY   92  74  55 E12       29.90F                  
BEEVILLE       LGT RAIN  79  76  91 NE16G22   29.91R                  
ROCKPORT       PTSUNNY   86  75  69 SE18G28   29.88F                  
PORT ARANSAS   LGT RAIN  80  77  90 E12G21    29.87F                  
PORT LAVACA    PTCLDY    87  77  72 E15G21    29.90F                  
CORPUS CHRISTI PTSUNNY   92  74  55 E15       29.87F                  
KINGSVILLE NAS LGT RAIN  93  76  57 E18       29.85F                  
COTULLA        MOSUNNY   92  68  45 VRB7      29.89F                  
LAREDO         MOSUNNY   93  70  47 N8        29.91F                  
BROWNSVILLE    LGT RAIN  91  76  61 N10G18    29.82S                  
PORT ISABEL    MOSUNNY   90  75  61 N14       29.81F                  
HEBBRONVILLE   PTCLDY    92  68  44 NE8       29.88F                  
MCALLEN        MOSUNNY   95  72  47 NW14G20   29.83F                  
WESLACO        CLOUDY    92  71  51 N7G20     29.82F                  
FALFURRIAS     MOCLDY    86  76  71 E12G30    29.85S                  
EDINBURG       MOCLDY    94  71  47 NE14      29.83F                  
$$

Return to Home page


Western Regional Climate Center, wrcc@dri.edu